Theta_e
295 295 295 295 295 295 295 294 294 294 294 295 295 296 297 297 297 295 293 296 290 285 287 290 290 286 287 287 283 285 283 284 283 279 278 278 278 281 279 281 276 276 275 276 277 275 273 288 281 279 286 289 287 287
294 294 294 294 294 294 294 294 294 294 294 294 295 295 296 296 296 296 289 294 295 287 286 293 293 293 292 291 288 287 285 285 286 282 282 283 280 281 280 276 283 276 281 280 280 280 287 287 287 288 288 286 288 287
293 293 293 294 294 294 294 294 294 294 294 294 294 295 295 296 296 295 291 293 290 285 285 286 284 291 294 294 295 285 286 289 288 290 286 283 279 283 277 278 280 282 286 281 281 284 286 287 288 288 288 287 288 290
292 293 293 294 294 294 294 294 294 293 294 294 294 294 295 295 295 295 290 292 289 285 281 284 291 288 293 293 293 292 290 291 289 288 284 281 279 284 279 281 280 283 284 281 280 283 285 287 289 290 290 290 289 290
291 292 293 293 293 293 293 293 293 293 293 293 293 294 294 295 295 294 293 292 290 286 281 283 285 289 291 291 291 292 290 287 286 282 281 279 283 282 282 281 279 284 281 279 279 285 285 286 290 291 290 290 291 289
291 292 292 293 293 293 293 293 293 293 293 293 293 294 294 294 294 290 284 291 292 290 283 277 283 283 285 287 287 287 288 286 285 282 280 283 284 282 277 275 282 285 287 287 284 288 288 289 289 291 289 289 289 288
291 292 292 293 293 293 293 293 293 293 293 293 293 293 293 294 291 284 284 287 292 291 282 278 278 280 284 285 286 286 287 285 283 281 280 281 281 282 278 274 281 283 286 287 288 287 285 287 286 288 287 288 287 286
291 292 292 293 293 293 293 293 293 293 293 293 293 293 293 293 292 287 290 292 292 285 284 277 275 277 283 279 279 285 281 282 281 281 283 280 282 281 274 280 282 284 285 285 285 286 287 288 287 286 286 285 285 284
292 292 292 293 293 293 293 293 293 293 293 293 293 293 292 289 284 287 293 292 290 283 278 277 273 272 280 281 282 282 283 276 283 278 278 280 277 274 277 279 281 282 282 283 285 285 285 284 284 285 285 285 284 284
292 293 293 293 293 294 294 294 294 294 294 293 291 285 281 285 292 292 286 283 283 283 281 276 280 274 279 278 278 278 280 276 273 278 282 276 275 280 281 282 284 284 284 285 281 281 283 283 283 284 284 285 285 285
293 293 293 294 294 294 294 294 294 294 294 287 284 283 286 291 287 283 277 276 278 275 279 280 279 276 281 276 276 280 276 277 271 275 275 274 273 278 282 283 284 284 284 285 285 285 285 284 284 283 284 285 285 285
292 293 294 294 294 294 295 295 295 292 287 287 287 286 285 283 280 275 274 276 274 273 277 277 278 280 279 282 278 277 274 275 269 276 272 270 275 280 281 281 282 283 284 283 284 284 284 284 284 284 284 285 286 286
292 294 293 293 294 294 294 294 295 295 292 286 284 282 280 279 272 270 268 271 272 275 276 275 275 278 276 278 277 275 271 271 276 271 270 274 278 278 280 281 282 283 282 282 282 284 284 284 284 284 284 285 285 285
291 293 293 293 294 294 294 293 294 293 285 282 279 274 275 272 274 275 275 275 278 277 275 277 275 275 278 275 276 271 274 272 268 267 269 276 278 278 276 276 274 276 276 275 276 279 280 281 282 283 283 284 283 283
290 291 292 292 293 292 294 293 293 287 284 279 278 272 273 276 275 274 273 274 276 279 277 275 275 276 274 274 275 271 267 266 269 269 275 280 274 271 272 273 273 273 274 274 274 274 275 276 276 277 279 279 281 281
290 290 289 291 293 292 294 293 287 285 281 278 276 273 271 273 274 272 272 274 276 278 280 279 274 273 272 274 269 268 268 267 272 275 274 273 271 269 269 270 270 271 271 271 271 272 273 273 274 275 274 274 275 276
288 285 290 291 292 290 288 285 284 279 279 275 274 274 276 276 276 275 275 276 277 277 275 276 271 271 272 269 268 272 271 275 270 270 270 270 267 267 268 267 266 267 268 268 268 269 270 271 272 271 270 273 274 274
284 286 289 290 288 286 279 277 278 277 273 272 273 274 274 274 274 272 273 274 276 276 277 275 275 269 269 268 269 268 267 267 268 267 267 267 267 267 266 265 264 264 265 266 266 267 268 269 270 272 273 273 272 272
283 287 287 288 286 279 277 274 273 272 270 270 271 271 273 274 275 274 275 276 277 277 275 274 273 267 265 264 263 264 265 265 264 264 264 266 267 265 264 264 264 265 264 264 265 267 268 269 270 271 271 271 270 273
285 284 284 287 283 279 275 271 271 274 272 271 271 272 273 274 274 271 270 270 270 269 264 262 261 260 260 261 262 263 264 264 262 261 264 264 264 263 263 262 263 264 264 265 265 265 266 267 270 270 270 270 269 270
277 277 279 282 276 273 269 267 269 267 269 272 271 272 272 273 271 269 266 268 264 260 260 260 260 260 260 261 263 262 262 261 260 260 260 260 262 262 263 264 264 264 263 263 262 262 263 264 267 268 269 270 271 270
272 276 271 271 274 273 268 265 266 268 269 270 271 272 271 269 267 266 267 261 258 258 258 258 257 257 257 259 260 260 259 259 260 261 262 261 261 261 260 261 261 260 261 261 261 260 261 263 265 267 269 270 270 270
270 269 264 263 268 269 265 265 267 266 269 267 269 269 267 267 266 267 260 260 257 258 257 257 256 257 258 260 259 259 259 258 258 258 259 260 261 262 262 261 260 259 259 259 260 260 261 262 264 265 268 270 270 270
266 257 256 255 255 257 259 260 263 263 263 262 264 265 263 263 264 262 258 257 257 258 256 255 255 256 258 258 257 257 257 257 257 258 259 259 259 259 261 260 260 261 260 259 259 260 260 261 262 264 266 268 269 269
258 253 256 252 254 254 253 255 256 258 257 257 261 261 259 260 261 257 256 255 255 255 254 254 254 255 254 255 256 256 258 257 255 255 257 260 259 259 258 258 259 260 260 258 257 258 259 260 261 262 263 267 267 267
250 250 252 251 252 252 251 254 254 253 254 255 254 256 257 259 258 254 253 252 253 253 253 252 252 253 254 255 254 254 255 256 256 255 259 259 258 257 255 254 254 256 259 258 258 257 258 259 260 260 263 266 267 267
249 249 250 253 251 253 254 256 256 255 253 251 252 252 255 255 254 253 253 253 253 254 254 254 253 253 253 253 254 255 255 256 255 255 256 257 260 259 257 254 253 255 258 258 258 258 258 259 260 261 262 265 267 267
247 247 246 248 248 251 251 254 253 251 252 253 253 253 253 252 253 253 253 254 254 254 254 254 254 254 253 253 254 254 255 255 255 257 260 261 261 260 258 256 257 260 258 258 259 260 259 260 261 261 263 265 266 267
248 246 245 247 247 250 251 252 251 252 252 251 251 252 253 253 252 252 254 254 255 254 253 252 253 253 253 254 254 254 254 253 251 250 249 251 253 255 256 255 255 256 257 257 260 261 261 262 262 263 263 265 267 267
246 242 248 245 243 248 250 248 249 248 248 249 248 251 252 251 253 255 254 254 254 253 254 253 253 252 251 250 250 252 253 253 252 250 248 248 250 252 253 253 254 255 256 257 257 257 260 260 261 261 262 263 265 266
243 245 246 245 245 248 246 244 241 241 242 244 246 248 249 249 252 254 254 255 254 254 254 254 254 254 253 252 251 250 251 252 251 251 251 251 251 252 253 254 255 255 256 256 255 256 256 257 258 259 260 260 262 263
244 241 243 243 246 245 244 243 242 244 244 245 247 247 249 249 247 250 255 255 254 254 255 254 254 254 255 254 252 251 252 251 251 252 251 253 253 253 254 255 255 256 255 254 255 255 256 256 257 258 258 259 260 262
240 238 238 240 243 244 243 241 243 243 243 244 246 245 247 248 246 251 255 255 255 255 255 255 255 255 254 254 254 254 254 253 252 255 255 256 255 255 254 255 256 254 253 253 254 255 255 256 256 257 257 258 259 261
Wind_Speed
31 29 26 26 25 23 24 25 23 22 24 23 24 24 26 25 23 15 7 10 11 7 14 15 23 13 8 12 11 4 5 5 5 11 8 9 11 11 12 10 9 13 11 10 11 11 20 10 11 11 8 1 3 5
30 30 28 29 27 28 25 27 24 24 24 25 25 23 26 25 25 20 10 7 11 9 3 12 20 19 22 21 11 11 5 4 8 8 9 6 8 5 10 13 10 10 13 9 12 11 9 6 6 13 3 5 6 7
30 30 30 30 29 29 26 27 27 25 26 25 25 25 27 27 26 21 11 6 7 7 8 8 14 14 14 16 12 7 4 8 4 3 2 3 10 2 13 17 11 11 13 13 12 20 23 16 11 10 11 12 13 13
30 30 28 28 28 28 28 26 26 25 23 25 23 23 25 27 24 22 10 5 7 2 7 8 6 19 11 17 22 20 15 10 3 2 6 6 9 7 7 10 11 11 11 19 20 27 20 18 15 15 14 14 12 11
28 28 28 29 27 26 27 26 25 24 22 22 20 22 23 22 22 15 7 6 10 8 3 3 3 9 17 14 18 17 15 10 6 7 7 9 8 10 14 17 16 16 21 16 17 13 14 16 15 14 14 12 11 10
27 28 29 29 28 27 25 24 23 23 21 20 20 20 20 19 15 3 3 9 12 7 4 5 3 6 8 16 17 15 14 10 9 7 7 10 17 10 9 15 22 18 20 23 23 22 24 20 19 10 5 9 12 11
27 28 29 30 28 26 26 25 22 20 20 19 20 13 16 14 7 4 2 2 8 10 4 3 4 3 5 5 5 5 7 6 6 7 8 12 12 12 15 23 26 23 20 13 16 15 22 22 15 8 11 16 11 12
29 30 30 30 28 26 24 23 21 21 20 19 18 16 16 15 11 5 5 7 7 6 5 4 1 5 8 6 6 5 6 6 6 7 7 13 9 11 18 23 24 26 22 21 23 17 22 21 17 16 10 12 17 18
31 31 30 29 28 27 25 22 20 20 18 17 16 14 7 4 4 2 11 12 3 3 3 4 6 3 5 4 4 5 5 6 5 8 13 7 13 14 14 18 20 24 23 21 22 22 22 23 24 22 20 20 20 23
31 31 31 30 29 27 25 22 21 20 19 16 7 4 4 5 10 10 5 3 4 2 3 0 2 5 6 6 6 5 5 6 6 8 5 11 17 23 21 20 14 15 17 17 13 17 19 20 19 20 21 21 22 22
33 31 30 30 29 27 25 23 21 20 18 4 4 6 1 10 3 3 5 5 3 3 3 5 8 8 5 6 5 6 3 3 6 6 6 5 6 14 19 22 22 23 23 24 23 23 22 22 20 19 21 20 18 21
36 27 25 23 21 21 21 21 20 13 5 9 6 3 3 4 5 6 6 5 6 6 6 8 8 9 5 2 4 4 5 4 7 4 5 6 11 11 13 16 17 19 23 23 23 24 23 23 23 22 20 20 19 21
29 22 23 25 24 23 22 20 20 18 14 4 4 6 5 5 8 9 8 5 6 4 5 5 4 5 3 4 4 5 8 7 2 5 8 13 5 5 8 11 15 13 10 14 20 19 19 22 20 18 19 19 20 17
29 29 25 19 17 17 17 15 15 8 3 5 8 10 8 7 7 6 6 7 5 5 8 7 4 4 4 7 4 6 4 1 5 9 23 7 8 6 3 3 5 9 10 12 15 14 13 14 16 16 13 14 14 17
30 31 18 10 22 24 30 28 23 4 4 3 4 7 8 1 0 2 1 1 4 6 9 6 3 3 3 4 5 2 4 7 7 13 9 4 3 3 6 7 8 10 9 9 10 10 11 10 10 15 10 10 12 15
30 22 5 25 20 27 10 14 7 2 3 4 3 4 3 3 3 3 4 3 3 4 3 3 5 5 6 5 6 9 5 7 7 1 3 5 5 7 7 7 9 11 11 11 11 11 11 10 11 13 11 10 11 13
24 2 18 25 22 16 19 5 2 3 3 5 2 0 3 1 1 2 2 0 4 6 6 4 8 8 3 5 6 5 8 4 3 3 5 6 7 9 7 8 9 11 12 12 12 13 13 10 10 10 13 11 10 12
5 11 18 22 16 4 3 5 2 1 3 2 2 3 3 2 3 2 2 2 4 4 4 4 3 5 6 6 4 3 3 5 4 4 6 8 9 7 8 10 10 11 11 11 11 11 12 11 10 8 11 10 10 11
17 6 16 18 9 3 2 2 3 3 2 0 1 1 1 3 2 2 2 3 3 3 3 2 3 2 3 3 4 4 5 5 6 7 7 8 8 9 10 9 10 10 12 12 12 8 9 11 10 8 7 8 8 8
13 7 19 13 9 0 2 3 2 2 2 2 1 2 1 3 4 4 6 5 4 3 5 5 3 3 3 4 5 6 6 6 6 7 6 6 7 10 10 10 9 12 10 11 9 9 8 8 6 7 7 8 9 8
9 10 13 8 4 5 4 3 2 2 1 1 1 1 3 2 3 4 4 4 5 4 3 3 3 4 6 6 5 6 5 5 5 3 5 7 9 9 9 8 8 8 7 8 8 9 9 8 9 9 8 8 7 7
4 14 3 6 3 3 5 3 2 2 1 1 1 2 3 3 3 3 2 6 4 3 3 3 5 5 5 5 6 5 5 7 6 5 5 8 7 8 8 8 8 8 7 7 8 9 10 10 10 10 9 8 8 7
9 6 5 8 3 6 3 4 2 5 0 3 1 3 3 3 3 2 5 4 3 3 3 3 6 6 5 4 4 5 6 8 6 6 6 6 7 7 7 7 6 7 8 9 9 9 10 14 12 11 10 9 7 6
9 9 9 6 7 5 6 6 4 4 3 4 4 3 4 3 3 3 4 3 2 3 5 8 6 5 3 3 5 5 6 6 6 5 5 6 6 7 8 7 7 5 6 9 9 9 10 10 14 10 11 10 8 8
8 11 7 9 5 7 7 6 7 6 4 5 3 3 4 4 2 3 2 2 3 4 6 6 6 6 4 5 5 6 8 7 7 8 5 4 6 5 7 7 7 7 7 10 11 12 12 12 11 12 12 11 12 10
11 7 8 8 5 6 6 6 7 6 4 5 4 5 3 2 3 3 2 3 3 3 5 6 5 6 4 5 7 7 7 8 7 5 4 5 5 4 7 11 10 8 8 11 12 14 15 14 13 17 14 15 14 10
8 6 4 2 3 5 3 2 1 3 5 6 5 6 4 2 2 2 1 1 2 3 5 4 4 5 6 7 6 6 7 7 6 8 9 7 5 1 4 8 12 10 12 14 13 13 15 15 15 14 14 12 11 9
2 4 5 8 4 3 4 3 5 6 4 5 4 2 3 3 2 2 1 2 3 4 4 3 3 4 5 5 5 6 5 8 10 6 2 3 2 2 5 7 8 16 12 12 13 12 12 13 14 14 14 13 10 8
3 4 3 4 3 2 3 3 3 2 3 2 3 3 2 1 1 1 1 2 3 3 3 4 3 4 4 5 3 3 4 6 12 11 11 6 7 4 9 9 10 10 10 11 17 15 17 14 14 12 13 12 8 7
4 3 3 2 2 2 1 2 2 3 2 3 3 3 2 1 1 1 2 2 2 2 3 3 3 3 3 4 5 5 1 1 3 4 6 7 8 11 11 11 11 11 11 13 14 15 16 14 13 11 12 11 9 8
3 2 2 1 4 1 2 3 1 2 2 2 1 2 3 3 2 2 3 2 2 3 3 2 1 0 3 4 3 4 4 1 2 5 6 8 9 10 10 11 10 10 11 13 13 12 14 13 11 12 13 15 16 14
4 3 3 4 5 2 3 5 3 3 2 2 1 1 2 1 3 2 2 3 2 2 3 2 2 2 2 2 3 4 9 7 7 7 10 8 9 10 10 9 9 10 11 13 13 12 14 15 12 12 12 15 16 15
1 1 1 3 4 5 5 6 5 6 2 2 2 1 1 2 4 3 1 4 5 4 3 3 3 3 5 6 5 5 6 5 8 11 14 14 14 13 10 8 9 10 12 12 12 12 14 16 14 15 14 14 14 13
Wind_Direction
299 296 296 295 291 280 278 279 283 290 285 278 270 265 264 261 252 252 258 209 220 223 239 208 219 214 214 212 216 126 139 203 200 220 230 222 245 223 232 232 175 181 181 206 223 233 248 184 135 217 254 18 198 208
297 295 295 294 290 281 282 282 282 282 285 284 273 260 257 256 256 251 258 213 214 226 281 232 228 226 222 219 220 188 226 146 193 206 210 213 226 193 222 233 191 219 211 205 205 215 245 180 233 218 202 294 286 299
300 299 300 290 287 285 281 282 280 278 280 283 275 262 253 254 257 247 249 237 203 232 249 224 219 221 218 208 180 186 198 232 235 263 292 269 252 281 238 238 250 230 245 243 260 248 256 262 250 258 264 256 265 282
298 303 302 295 283 282 283 282 280 276 281 283 273 267 252 254 255 247 239 213 227 189 241 223 197 203 199 210 219 214 223 217 242 292 252 252 258 190 254 268 266 250 250 243 253 255 271 272 265 259 255 261 266 265
297 302 304 300 293 284 279 279 280 273 276 280 271 271 260 252 254 252 241 212 218 212 274 242 112 210 196 193 205 210 217 214 209 215 220 238 249 253 255 261 255 239 247 242 245 265 261 256 250 253 262 263 258 256
300 300 304 300 297 292 290 279 270 268 268 274 272 273 258 249 239 216 223 216 197 225 238 220 103 168 179 200 208 215 218 219 225 218 229 237 245 245 258 257 258 256 254 256 264 257 257 270 278 261 246 256 262 285
299 301 305 301 296 293 290 283 274 267 266 269 267 261 258 242 227 206 208 124 285 186 223 231 188 126 158 140 170 180 195 207 219 230 232 244 239 225 244 250 258 258 258 247 263 272 271 275 268 251 229 253 268 266
298 303 300 297 294 293 286 280 274 267 266 262 258 248 246 244 249 229 242 237 258 206 191 225 95 158 176 159 180 183 196 194 208 225 232 227 237 229 247 254 254 253 260 263 264 258 251 253 254 255 252 270 274 264
299 295 294 294 293 291 287 277 265 262 259 256 254 245 260 223 217 214 201 201 197 253 187 162 144 157 163 125 157 169 195 219 204 222 230 232 231 231 255 249 250 252 253 264 257 256 255 260 265 264 262 261 256 260
298 296 294 290 288 284 279 272 263 256 249 242 234 179 216 207 149 140 138 208 225 196 151 123 92 153 182 164 173 181 185 218 226 213 215 224 238 247 256 250 235 240 234 235 238 249 245 246 246 250 248 246 247 253
309 301 298 295 289 283 276 268 257 241 238 176 185 194 99 157 120 186 200 208 191 232 185 174 187 150 219 171 177 202 205 223 240 205 221 229 237 240 244 246 248 247 249 249 250 248 251 256 259 258 257 247 247 253
312 299 294 298 295 280 275 265 254 222 184 176 137 102 125 172 194 196 192 181 197 218 184 188 188 192 139 168 185 174 225 223 251 140 230 239 254 264 248 251 252 250 250 250 248 247 246 249 250 249 252 257 252 251
325 320 308 308 294 280 274 264 258 239 172 127 159 162 196 169 190 195 187 193 197 187 180 164 154 129 124 194 190 185 218 227 113 215 244 248 257 233 238 251 258 274 304 293 272 252 244 246 252 247 250 251 255 260
329 324 322 320 327 315 296 283 284 240 177 186 155 190 203 181 225 196 200 204 165 158 150 168 140 161 164 177 209 228 205 158 236 237 242 260 257 237 322 311 325 322 316 297 294 286 262 253 257 262 253 261 263 258
333 322 323 312 331 319 289 251 236 178 160 122 147 204 199 184 26 18 9 226 181 147 145 127 123 186 159 206 194 120 192 232 227 251 261 256 31 347 333 342 330 316 310 312 312 305 293 284 273 276 274 269 267 268
332 322 319 330 336 337 356 147 128 158 95 148 178 149 102 150 199 209 179 232 144 156 142 134 140 197 206 206 182 210 219 227 249 256 5 345 0 350 336 330 322 311 308 305 301 297 293 294 292 289 288 280 273 269
328 267 331 333 341 345 8 47 80 46 113 151 187 338 136 57 110 149 181 208 158 165 187 172 191 198 102 202 212 211 230 257 21 345 341 349 334 322 325 328 317 313 310 308 308 310 305 301 298 301 297 300 279 267
288 309 319 335 344 331 38 21 78 147 119 111 177 136 110 90 123 131 239 216 182 206 212 218 109 181 205 206 210 42 5 353 338 337 326 327 324 328 334 321 313 310 304 310 309 304 300 305 303 293 292 296 299 287
308 292 335 338 344 338 358 62 337 83 56 125 148 112 111 104 83 47 237 220 222 40 335 281 245 9 61 39 355 347 346 357 324 317 303 307 329 334 326 318 310 313 326 321 318 311 309 305 290 291 300 305 300 299
321 337 347 342 354 21 51 37 302 66 101 64 228 165 97 87 115 86 49 38 41 53 45 43 41 35 336 341 329 309 326 342 325 316 322 335 337 335 336 327 321 323 323 323 321 317 323 313 320 321 311 307 295 300
352 343 341 354 28 49 67 357 64 27 331 59 29 295 98 95 64 51 53 6 65 37 62 46 5 338 329 304 323 333 335 346 326 312 309 313 336 325 320 327 327 317 321 323 325 323 324 315 315 315 310 306 304 301
325 340 5 352 54 61 84 32 334 309 286 82 119 357 69 74 68 49 70 54 56 34 4 339 336 326 319 322 345 346 339 330 314 303 313 317 322 329 331 327 327 327 327 328 329 319 313 313 316 313 311 312 310 306
355 13 40 7 57 22 32 332 351 6 68 26 246 109 58 70 62 128 78 69 91 42 351 330 328 302 294 332 355 9 357 344 333 330 318 322 325 322 323 323 328 328 330 331 325 315 312 314 315 318 312 320 318 315
31 42 31 34 6 4 319 11 4 1 40 25 1 88 52 31 338 62 81 71 63 35 16 359 349 348 345 10 12 354 353 343 326 324 338 332 329 335 337 331 327 326 340 318 319 319 318 319 320 324 325 326 329 326
61 8 11 3 10 356 13 359 352 21 41 352 0 39 19 319 72 61 67 49 4 13 5 354 1 4 341 326 336 344 354 359 337 320 305 325 328 323 341 338 333 331 352 331 332 329 327 323 325 326 326 328 333 326
64 359 23 357 351 8 353 350 14 4 351 1 22 330 321 344 58 57 44 1 343 345 354 350 340 334 331 352 322 318 334 336 321 304 286 355 325 348 348 342 337 331 352 331 323 324 322 324 324 324 324 329 331 324
52 346 350 37 326 300 286 313 319 13 22 11 354 338 335 70 61 44 61 39 326 336 326 318 316 318 313 318 318 319 318 318 312 281 287 286 276 64 24 345 328 314 322 320 318 319 320 322 320 320 319 317 328 326
87 14 349 326 338 360 318 5 21 16 6 348 302 332 358 11 64 31 351 348 325 320 315 312 297 311 305 307 310 319 319 332 325 318 294 289 360 326 17 328 310 316 317 313 315 317 321 318 320 319 319 321 325 329
28 354 283 331 319 329 20 31 19 24 354 308 304 301 351 15 21 300 292 315 320 316 328 345 348 340 321 326 330 339 346 1 10 14 3 334 330 304 338 323 323 324 326 320 320 328 324 329 324 323 323 322 318 313
6 355 336 16 356 289 30 10 333 337 293 310 307 291 257 266 260 241 266 274 304 323 322 313 305 336 349 356 342 342 321 15 39 21 329 315 307 308 314 317 323 326 329 327 325 326 330 335 330 341 348 343 343 337
318 311 331 263 265 279 335 309 274 241 275 283 269 263 284 314 290 239 242 251 257 279 290 340 341 347 351 3 354 334 330 238 263 295 269 282 287 297 305 312 317 319 325 324 321 324 327 332 331 337 343 342 338 337
3 37 346 303 289 341 352 3 329 329 333 317 260 275 292 286 274 270 210 188 237 252 254 272 319 332 317 257 231 242 252 278 290 299 310 306 302 300 304 311 315 318 325 319 316 321 325 326 326 337 342 334 330 331
356 232 239 296 305 326 359 340 12 338 333 312 304 324 283 274 255 264 263 215 225 235 241 250 255 263 271 274 262 268 262 257 274 294 303 304 306 307 309 309 318 320 317 314 313 318 320 323 330 333 335 332 330 335